Powrót do katalogu

STARLINK-4014

AktywnyŁącznośćVLEO
NORAD 52684·PAYLOAD·🇺🇸 United States

Wystrzelony May 18, 2022 z Cape Canaveral Space Force Station

Loading…

Następne Przeloty (najbliższe 24 godziny)

TLE

ŚwieżeSource: CelesTrak SupGP

Epoka: Sep 14, 2026, 21:32 UTC

1 52684C 22053AE  26257.89770833  .00312450  00000+0  13035-1 0  2578
2 52684  53.1607  13.3526 0001223  80.4630 117.5557 15.22991641    10

Śledź STARLINK-4014 w czasie rzeczywistym z AllMySat

Download on the App Store